When you browse on this site, cookies collect data to enhance your experience and personalize the content and advertising you see.
Visit our Privacy Policy to learn more. By continuing to use the site, you agree to this use of cookies and data.
  • In Romania
  • List of Countries
  • For 7 days
  • Water Temperature
  • Satellite Maps
  • Weather Map
  • Weather Widgets
  • user-avatar
    Login

    Hourly Weather La Rioja

    Today, 24 March, Sunday

    Time Temperature Precipitation Wind Pressure Humidity
    00:00 +25°C° 0 mm 3 mps 715 mmHg 60%
    01:00 +24°C° 0 mm 3 mps 716 mmHg 62%
    02:00 +24°C° 0 mm 3 mps 716 mmHg 65%
    03:00 +24°C° 0 mm 3 mps 717 mmHg 66%
    04:00 +22°C° 0 mm 3 mps 717 mmHg 68%
    05:00 +22°C° 0 mm 3 mps 717 mmHg 69%
    06:00 +24°C° 0 mm 3 mps 718 mmHg 66%
    07:00 +25°C° 0 mm 2 mps 718 mmHg 62%
    08:00 +26°C° 0 mm 2 mps 719 mmHg 59%
    09:00 +27°C° 0.2 mm 3 mps 719 mmHg 55%
    10:00 +28°C° 0.2 mm 3 mps 719 mmHg 52%
    11:00 +30°C° 0.2 mm 3 mps 719 mmHg 48%
    12:00 +30°C° 0.3 mm 3 mps 719 mmHg 46%
    13:00 +31°C° 0.3 mm 3 mps 718 mmHg 43%
    14:00 +31°C° 0.3 mm 3 mps 717 mmHg 41%
    15:00 +31°C° 0 mm 3 mps 717 mmHg 41%
    16:00 +32°C° 0 mm 4 mps 716 mmHg 41%
    17:00 +32°C° 0 mm 4 mps 715 mmHg 41%
    18:00 +30°C° 0 mm 3 mps 716 mmHg 46%
    19:00 +28°C° 0 mm 3 mps 716 mmHg 50%
    20:00 +27°C° 0 mm 2 mps 716 mmHg 55%
    21:00 +27°C° 0 mm 3 mps 717 mmHg 56%
    22:00 +26°C° 0 mm 3 mps 717 mmHg 58%
    23:00 +25°C° 0 mm 3 mps 717 mmHg 60%

    Tomorrow, 25 March, Monday

    Time Temperature Precipitation Wind Pressure Humidity
    00:00 +25°C° 0 mm 3 mps 717 mmHg 63%
    01:00 +24°C° 0 mm 2 mps 717 mmHg 65%
    02:00 +23°C° 0 mm 1 mps 716 mmHg 67%
    03:00 +22°C° 0 mm 1 mps 716 mmHg 68%
    04:00 +22°C° 0 mm 1 mps 716 mmHg 68%
    05:00 +21°C° 0 mm 1 mps 716 mmHg 68%
    06:00 +22°C° 0 mm 1 mps 716 mmHg 63%
    07:00 +21°C° 0 mm 2 mps 717 mmHg 59%
    08:00 +23°C° 0 mm 2 mps 717 mmHg 54%
    09:00 +24°C° 0 mm 2 mps 717 mmHg 51%
    10:00 +25°C° 0 mm 3 mps 717 mmHg 47%
    11:00 +26°C° 0 mm 3 mps 717 mmHg 44%
    12:00 +27°C° 0 mm 3 mps 717 mmHg 41%
    13:00 +28°C° 0 mm 3 mps 716 mmHg 39%
    14:00 +29°C° 0 mm 4 mps 715 mmHg 37%
    15:00 +29°C° 0 mm 4 mps 715 mmHg 37%
    16:00 +29°C° 0 mm 4 mps 715 mmHg 37%
    17:00 +29°C° 0 mm 5 mps 715 mmHg 37%
    18:00 +27°C° 0 mm 4 mps 715 mmHg 42%
    19:00 +25°C° 0 mm 4 mps 716 mmHg 46%
    20:00 +22°C° 0 mm 3 mps 717 mmHg 51%
    21:00 +21°C° 0 mm 3 mps 717 mmHg 54%
    22:00 +20°C° 0 mm 3 mps 718 mmHg 57%
    23:00 +19°C° 0 mm 2 mps 719 mmHg 60%

    Day after tomorrow, 26 March, Tuesday

    Time Temperature Precipitation Wind Pressure Humidity
    00:00 +18°C° 0 mm 2 mps 719 mmHg 62%
    01:00 +19°C° 0 mm 1 mps 719 mmHg 65%
    02:00 +18°C° 0 mm 1 mps 719 mmHg 68%
    03:00 +18°C° 0 mm 1 mps 719 mmHg 69%
    04:00 +16°C° 0 mm 1 mps 719 mmHg 71%
    05:00 +16°C° 0 mm 1 mps 718 mmHg 72%
    06:00 +18°C° 0 mm 1 mps 719 mmHg 69%
    07:00 +19°C° 0 mm 1 mps 719 mmHg 66%
    08:00 +19°C° 0 mm 1 mps 720 mmHg 63%
    09:00 +20°C° 0 mm 2 mps 720 mmHg 59%
    10:00 +21°C° 0 mm 2 mps 720 mmHg 54%
    11:00 +24°C° 0 mm 3 mps 720 mmHg 50%
    12:00 +25°C° 0 mm 3 mps 720 mmHg 48%
    13:00 +25°C° 0 mm 3 mps 719 mmHg 46%
    14:00 +26°C° 0 mm 4 mps 719 mmHg 44%
    15:00 +26°C° 0 mm 4 mps 718 mmHg 46%
    16:00 +25°C° 0 mm 5 mps 718 mmHg 47%
    17:00 +25°C° 0 mm 5 mps 718 mmHg 48%
    18:00 +22°C° 0 mm 5 mps 718 mmHg 53%
    19:00 +21°C° 0 mm 4 mps 719 mmHg 59%
    20:00 +19°C° 0 mm 3 mps 720 mmHg 64%
    21:00 +18°C° 0 mm 3 mps 720 mmHg 67%
    22:00 +18°C° 0 mm 2 mps 721 mmHg 70%
    23:00 +17°C° 0 mm 2 mps 721 mmHg 74%

    27 March, Wednesday

    Time Temperature Precipitation Wind Pressure Humidity
    00:00 +16°C° 0 mm 2 mps 721 mmHg 76%
    01:00 +16°C° 0 mm 1 mps 721 mmHg 78%
    02:00 +15°C° 0 mm 1 mps 720 mmHg 80%
    03:00 +15°C° 0 mm 2 mps 720 mmHg 81%
    04:00 +15°C° 0 mm 2 mps 720 mmHg 82%
    05:00 +15°C° 0 mm 2 mps 719 mmHg 82%
    06:00 +15°C° 0 mm 2 mps 720 mmHg 80%
    07:00 +16°C° 0 mm 2 mps 720 mmHg 77%
    08:00 +17°C° 0 mm 2 mps 720 mmHg 74%
    09:00 +18°C° 0 mm 2 mps 720 mmHg 69%
    10:00 +19°C° 0 mm 2 mps 720 mmHg 64%
    11:00 +21°C° 0 mm 3 mps 720 mmHg 59%
    12:00 +22°C° 0 mm 3 mps 719 mmHg 55%
    13:00 +24°C° 0 mm 3 mps 718 mmHg 52%
    14:00 +25°C° 0 mm 3 mps 718 mmHg 48%
    15:00 +25°C° 0 mm 3 mps 718 mmHg 48%
    16:00 +25°C° 0 mm 3 mps 717 mmHg 48%
    17:00 +25°C° 0 mm 3 mps 717 mmHg 49%
    18:00 +24°C° 0 mm 3 mps 718 mmHg 53%
    19:00 +22°C° 0 mm 3 mps 718 mmHg 57%
    20:00 +20°C° 0 mm 3 mps 719 mmHg 61%
    21:00 +19°C° 0 mm 3 mps 719 mmHg 64%
    22:00 +18°C° 0 mm 2 mps 719 mmHg 67%
    23:00 +18°C° 0 mm 1 mps 720 mmHg 71%

    28 March, Thursday

    Time Temperature Precipitation Wind Pressure Humidity
    00:00 +18°C° 0 mm 1 mps 720 mmHg 71%
    01:00 +18°C° 0 mm 1 mps 719 mmHg 71%
    02:00 +18°C° 0 mm 1 mps 719 mmHg 72%
    03:00 +16°C° 0 mm 1 mps 719 mmHg 72%
    04:00 +16°C° 0 mm 2 mps 719 mmHg 73%
    05:00 +16°C° 0 mm 2 mps 719 mmHg 74%
    06:00 +18°C° 0 mm 1 mps 719 mmHg 70%
    07:00 +19°C° 0 mm 1 mps 719 mmHg 67%
    08:00 +20°C° 0 mm 1 mps 720 mmHg 63%
    09:00 +20°C° 0 mm 2 mps 719 mmHg 58%
    10:00 +23°C° 0 mm 2 mps 719 mmHg 53%
    11:00 +25°C° 0 mm 2 mps 719 mmHg 48%
    12:00 +26°C° 0 mm 3 mps 719 mmHg 45%
    13:00 +27°C° 0 mm 3 mps 718 mmHg 43%
    14:00 +28°C° 0 mm 3 mps 717 mmHg 40%
    15:00 +28°C° 0 mm 3 mps 717 mmHg 40%
    16:00 +28°C° 0 mm 2 mps 717 mmHg 39%
    17:00 +28°C° 0 mm 2 mps 717 mmHg 39%
    18:00 +27°C° 0 mm 2 mps 717 mmHg 43%
    19:00 +25°C° 0 mm 2 mps 718 mmHg 47%
    20:00 +24°C° 0 mm 2 mps 719 mmHg 51%
    21:00 +23°C° 0 mm 2 mps 719 mmHg 55%
    22:00 +22°C° 0 mm 1 mps 719 mmHg 60%
    23:00 +21°C° 0 mm 1 mps 719 mmHg 64%

    29 March, Friday

    Time Temperature Precipitation Wind Pressure Humidity
    00:00 +21°C° 0 mm 1 mps 719 mmHg 66%
    01:00 +20°C° 0 mm 1 mps 718 mmHg 69%
    02:00 +20°C° 0 mm 1 mps 718 mmHg 71%
    03:00 +19°C° 0 mm 1 mps 718 mmHg 72%
    04:00 +19°C° 0 mm 1 mps 717 mmHg 73%
    05:00 +19°C° 0 mm 1 mps 717 mmHg 74%
    06:00 +20°C° 0 mm 1 mps 718 mmHg 69%
    07:00 +21°C° 0 mm 1 mps 718 mmHg 63%
    08:00 +23°C° 0 mm 1 mps 718 mmHg 57%
    09:00 +24°C° 0 mm 1 mps 718 mmHg 53%
    10:00 +26°C° 0 mm 2 mps 718 mmHg 48%
    11:00 +28°C° 0 mm 2 mps 717 mmHg 43%
    12:00 +29°C° 0 mm 3 mps 717 mmHg 41%
    13:00 +30°C° 0 mm 3 mps 716 mmHg 39%
    14:00 +31°C° 0 mm 3 mps 715 mmHg 37%
    15:00 +31°C° 0 mm 3 mps 715 mmHg 37%
    16:00 +31°C° 0 mm 2 mps 714 mmHg 37%
    17:00 +31°C° 0 mm 2 mps 714 mmHg 37%
    18:00 +29°C° 0 mm 2 mps 714 mmHg 41%
    19:00 +27°C° 0 mm 2 mps 715 mmHg 45%
    20:00 +26°C° 0 mm 2 mps 715 mmHg 50%
    21:00 +25°C° 0 mm 2 mps 715 mmHg 51%
    22:00 +25°C° 0 mm 2 mps 716 mmHg 52%
    23:00 +25°C° 0 mm 2 mps 716 mmHg 53%
    Show more